Radiation Dose at Monitoring Post of Fukushima Daini Nuclear Power Station
Date,Time,MP-1(microSv/h),MP-2(microSv/h),MP-3(microSv/h),MP-4(microSv/h),MP-5(microSv/h),MP-6(microSv/h),MP-7(microSv/h),Wind Direction,Wind Velocity(m/s),Rain
2017/12/12,00:00,0.338,0.212,0.349,0.329,0.312,0.172,0.102,west-northwest,13.9,No
2017/12/12,00:10,0.338,0.211,0.347,0.329,0.312,0.173,0.102,west-northwest,14.8,No
2017/12/12,00:20,0.339,0.211,0.350,0.329,0.314,0.173,0.102,west-northwest,15.8,No
2017/12/12,00:30,0.337,0.211,0.349,0.328,0.313,0.173,0.102,west-northwest,14.7,No
2017/12/12,00:40,0.336,0.211,0.349,0.329,0.313,0.172,0.102,west-northwest,14.0,No
2017/12/12,00:50,0.338,0.211,0.350,0.329,0.313,0.172,0.102,west-northwest,15.3,No
2017/12/12,01:00,0.339,0.211,0.348,0.329,0.314,0.173,0.103,west-northwest,12.9,No
2017/12/12,01:10,0.339,0.212,0.350,0.329,0.314,0.172,0.102,west-northwest,12.6,No
2017/12/12,01:20,0.339,0.213,0.350,0.329,0.314,0.171,0.103,west-northwest,14.0,No
2017/12/12,01:30,0.338,0.213,0.349,0.330,0.315,0.172,0.101,west-northwest,14.9,No
2017/12/12,01:40,0.338,0.211,0.348,0.329,0.314,0.172,0.102,west-northwest,13.4,No
2017/12/12,01:50,0.338,0.213,0.349,0.329,0.313,0.172,0.102,west-northwest,10.9,No
2017/12/12,02:00,0.339,0.213,0.348,0.328,0.315,0.173,0.102,west,11.1,No
2017/12/12,02:10,0.338,0.213,0.350,0.330,0.314,0.172,0.102,west,9.6,No
2017/12/12,02:20,0.338,0.213,0.350,0.329,0.314,0.172,0.102,west,8.2,No
2017/12/12,02:30,0.339,0.212,0.348,0.328,0.313,0.172,0.103,west,7.7,No
2017/12/12,02:40,0.339,0.212,0.349,0.328,0.313,0.172,0.102,west,7.5,No
2017/12/12,02:50,0.339,0.212,0.348,0.328,0.313,0.172,0.102,west,5.7,No
2017/12/12,03:00,0.340,0.212,0.350,0.329,0.312,0.172,0.102,west,5.7,No
2017/12/12,03:10,0.339,0.213,0.350,0.330,0.314,0.172,0.102,west,6.4,No
2017/12/12,03:20,0.338,0.213,0.348,0.328,0.313,0.171,0.102,west-southwest,4.6,No
2017/12/12,03:30,0.338,0.213,0.349,0.327,0.312,0.172,0.103,west-southwest,6.7,No
2017/12/12,03:40,0.339,0.212,0.349,0.329,0.312,0.172,0.102,west,6.6,No
2017/12/12,03:50,0.337,0.212,0.347,0.330,0.312,0.172,0.101,west-southwest,8.5,No
2017/12/12,04:00,0.338,0.212,0.349,0.329,0.312,0.172,0.103,west,8.5,No
2017/12/12,04:10,0.338,0.213,0.348,0.328,0.311,0.173,0.102,west,8.7,No
2017/12/12,04:20,0.338,0.212,0.346,0.328,0.312,0.173,0.103,west,8.2,No
2017/12/12,04:30,0.339,0.212,0.349,0.329,0.313,0.173,0.102,west-northwest,8.3,No
2017/12/12,04:40,0.337,0.212,0.348,0.329,0.312,0.172,0.102,west,7.7,No
2017/12/12,04:50,0.338,0.212,0.348,0.329,0.311,0.173,0.102,west,8.6,No
2017/12/12,05:00,0.337,0.213,0.348,0.329,0.312,0.173,0.102,west-northwest,6.5,No
2017/12/12,05:10,0.338,0.212,0.348,0.328,0.312,0.172,0.102,west-northwest,5.8,No
2017/12/12,05:20,0.338,0.212,0.348,0.328,0.312,0.172,0.102,northwest,6.7,No
2017/12/12,05:30,0.339,0.212,0.350,0.330,0.312,0.172,0.102,north-northwest,8.4,No
2017/12/12,05:40,0.339,0.212,0.349,0.330,0.312,0.172,0.102,northwest,7.0,No
2017/12/12,05:50,0.339,0.212,0.349,0.328,0.312,0.173,0.102,west-northwest,6.4,No
2017/12/12,06:00,0.340,0.214,0.348,0.329,0.313,0.172,0.102,west-northwest,7.1,No
2017/12/12,06:10,0.339,0.213,0.349,0.330,0.312,0.173,0.102,west-northwest,6.6,No
2017/12/12,06:20,0.339,0.213,0.351,0.329,0.311,0.173,0.103,west-northwest,8.3,No
2017/12/12,06:30,0.339,0.212,0.351,0.328,0.313,0.173,0.103,west-northwest,10.4,No
2017/12/12,06:40,0.340,0.213,0.350,0.328,0.313,0.173,0.103,west-northwest,9.8,No
2017/12/12,06:50,0.340,0.214,0.350,0.330,0.313,0.173,0.104,west-northwest,7.3,No
2017/12/12,07:00,0.340,0.214,0.349,0.330,0.313,0.173,0.103,west-northwest,6.7,No
2017/12/12,07:10,0.340,0.213,0.351,0.331,0.314,0.173,0.103,west-northwest,7.1,No
2017/12/12,07:20,0.340,0.213,0.350,0.330,0.313,0.174,0.103,west-northwest,5.7,No
2017/12/12,07:30,0.339,0.213,0.351,0.329,0.313,0.172,0.102,northwest,5.4,No
2017/12/12,07:40,0.341,0.214,0.350,0.328,0.313,0.173,0.103,northwest,7.4,Yes
2017/12/12,07:50,0.340,0.216,0.352,0.331,0.311,0.173,0.104,west-northwest,6.5,Yes
2017/12/12,08:00,0.342,0.215,0.352,0.331,0.314,0.174,0.103,west-northwest,5.7,No
2017/12/12,08:10,0.342,0.216,0.352,0.329,0.314,0.174,0.104,west-northwest,3.5,No
2017/12/12,08:20,0.340,0.216,0.352,0.329,0.314,0.173,0.104,west-northwest,2.3,No
2017/12/12,08:30,0.341,0.216,0.351,0.330,0.315,0.173,0.104,west-northwest,2.4,No
2017/12/12,08:40,0.340,0.215,0.351,0.327,0.313,0.173,0.102,northwest,5.6,No
2017/12/12,08:50,0.340,0.214,0.352,0.329,0.313,0.173,0.103,northwest,7.6,No
2017/12/12,09:00,0.340,0.215,0.350,0.329,0.313,0.172,0.103,west-northwest,7.7,No
2017/12/12,09:10,0.341,0.217,0.352,0.329,0.314,0.173,0.103,northwest,8.7,No
2017/12/12,09:20,0.343,0.218,0.352,0.331,0.314,0.176,0.105,west-northwest,7.6,Yes
2017/12/12,09:30,0.343,0.217,0.354,0.333,0.316,0.178,0.106,west-northwest,7.5,Yes
2017/12/12,09:40,0.343,0.218,0.353,0.332,0.316,0.177,0.106,west-northwest,6.6,No
2017/12/12,09:50,-,0.217,0.353,0.333,0.316,0.177,0.106,west-northwest,4.9,No
2017/12/12,10:00,-,0.216,0.352,0.333,0.316,0.176,0.105,west-northwest,7.0,No
2017/12/12,10:10,-,0.216,0.351,0.332,0.314,0.176,0.105,northwest,8.4,No
2017/12/12,10:20,-,0.217,0.352,0.331,0.317,0.177,0.107,west-northwest,8.2,Yes
2017/12/12,10:30,-,0.218,0.354,0.333,0.317,0.177,0.107,west,8.8,Yes
2017/12/12,10:40,-,0.218,0.354,0.335,0.316,0.179,0.107,west,9.0,No
2017/12/12,10:50,-,0.216,0.352,0.332,0.316,0.177,0.108,west-northwest,7.6,No
2017/12/12,11:00,-,0.216,0.350,0.332,0.318,0.176,0.106,west,8.2,No
2017/12/12,11:10,-,0.215,0.351,0.332,0.315,0.177,0.106,west,6.5,No
2017/12/12,11:20,-,0.214,0.351,0.331,0.315,0.176,0.105,west,4.9,No
2017/12/12,11:30,-,0.214,0.351,0.331,0.316,0.176,0.105,west-northwest,5.4,No
2017/12/12,11:40,-,0.214,0.349,0.330,0.313,0.175,0.105,northwest,7.0,No
2017/12/12,11:50,-,0.214,0.349,0.330,0.314,0.174,0.104,west-northwest,9.0,No
2017/12/12,12:00,-,0.213,0.350,0.330,0.314,0.175,0.104,west,6.2,Yes
2017/12/12,12:10,-,0.215,0.349,0.332,0.315,0.174,0.104,west,8.8,No
2017/12/12,12:20,-,0.214,0.350,0.329,0.315,0.175,0.104,west-northwest,9.2,No
2017/12/12,12:30,-,0.213,0.351,0.330,0.315,0.174,0.104,west-northwest,9.5,No
2017/12/12,12:40,-,0.213,0.349,0.327,0.312,0.175,0.104,west-northwest,10.3,No
2017/12/12,12:50,-,0.213,0.349,0.328,0.314,0.173,0.103,west-northwest,11.8,No
2017/12/12,13:00,-,0.213,0.351,0.331,0.315,0.173,0.103,west-northwest,10.1,No
2017/12/12,13:10,-,0.213,0.349,0.329,0.315,0.174,0.104,west,7.8,No
2017/12/12,13:20,-,0.212,0.350,0.330,0.315,0.174,0.103,west,6.7,No
2017/12/12,13:30,-,0.213,0.350,0.330,0.317,0.174,0.104,west,8.3,No
2017/12/12,13:40,-,0.214,0.350,0.331,0.316,0.174,0.104,west-northwest,8.7,No
2017/12/12,13:50,-,0.213,0.349,0.329,0.312,0.174,0.103,west,8.7,No
2017/12/12,14:00,-,0.213,0.349,0.329,0.315,0.173,0.104,west-northwest,6.5,No
2017/12/12,14:10,-,0.212,0.351,0.329,0.314,0.173,0.103,west-northwest,7.6,No
2017/12/12,14:20,-,0.214,0.352,0.330,0.313,0.173,0.103,west-northwest,9.0,No
2017/12/12,14:30,-,0.212,0.351,0.328,0.314,0.174,0.103,west-northwest,7.0,No
2017/12/12,14:40,-,0.212,0.350,0.330,0.316,0.173,0.103,west-northwest,7.6,No
2017/12/12,14:50,-,0.212,0.349,0.331,0.314,0.173,0.104,west-northwest,8.4,No
2017/12/12,15:00,-,0.212,0.350,0.330,0.313,0.173,0.103,west-northwest,5.2,No
2017/12/12,15:10,-,0.213,0.351,0.329,0.315,0.173,0.103,west,7.5,No
2017/12/12,15:20,0.339,0.212,0.350,0.330,0.314,0.173,0.103,west,3.7,No
2017/12/12,15:30,0.338,0.213,0.351,0.329,0.314,0.174,0.104,west-northwest,3.9,No
2017/12/12,15:40,0.339,0.213,0.349,0.331,0.314,0.174,0.104,west,6.0,No
2017/12/12,15:50,0.337,0.213,0.350,0.331,0.314,0.174,0.103,west,3.3,No
2017/12/12,16:00,0.339,0.212,0.350,0.330,0.314,0.174,0.102,west,5.2,No
2017/12/12,16:10,0.339,0.213,0.350,0.331,0.313,0.173,0.102,west,4.9,No
2017/12/12,16:20,0.339,0.213,0.350,0.329,0.314,0.173,0.103,west,5.9,No
2017/12/12,16:30,0.339,0.213,0.350,0.329,0.312,0.173,0.103,west,6.6,No
2017/12/12,16:40,0.339,0.212,0.350,0.330,0.312,0.173,0.103,west,6.8,No
2017/12/12,16:50,0.338,0.211,0.351,0.331,0.313,0.172,0.103,west,5.3,No
2017/12/12,17:00,0.339,0.212,0.350,0.329,0.313,0.172,0.103,west,3.7,No
2017/12/12,17:10,0.340,0.212,0.350,0.329,0.313,0.172,0.103,west-northwest,4.9,No
2017/12/12,17:20,0.337,0.213,0.349,0.330,0.313,0.172,0.103,west-northwest,3.4,No
2017/12/12,17:30,0.338,0.213,0.349,0.330,0.313,0.173,0.103,west-northwest,3.8,No
2017/12/12,17:40,0.338,0.211,0.350,0.330,0.312,0.172,0.102,west,7.5,No
2017/12/12,17:50,0.339,0.212,0.349,0.330,0.313,0.174,0.103,west,6.2,No
2017/12/12,18:00,0.339,0.212,0.350,0.329,0.313,0.173,0.103,west,6.6,No
2017/12/12,18:10,0.338,0.213,0.350,0.330,0.312,0.174,0.103,west,5.3,No
2017/12/12,18:20,0.338,0.213,0.352,0.330,0.314,0.173,0.102,west-northwest,6.7,No
2017/12/12,18:30,0.339,0.213,0.349,0.330,0.312,0.173,0.103,west-southwest,7.3,No
2017/12/12,18:40,0.338,0.212,0.351,0.330,0.314,0.173,0.103,west,5.5,No
2017/12/12,18:50,0.338,0.213,0.350,0.329,0.313,0.173,0.103,west,3.0,No
2017/12/12,19:00,0.337,0.213,0.350,0.329,0.314,0.173,0.103,west,3.1,No
2017/12/12,19:10,0.339,0.212,0.350,0.329,0.313,0.173,0.103,west-northwest,4.1,No
2017/12/12,19:20,0.338,0.212,0.352,0.330,0.313,0.174,0.102,west-southwest,5.6,No
2017/12/12,19:30,0.339,0.212,0.350,0.330,0.312,0.173,0.102,west-southwest,5.6,No
2017/12/12,19:40,0.338,0.212,0.349,0.329,0.313,0.174,0.103,west-southwest,5.6,No
2017/12/12,19:50,0.339,0.213,0.348,0.329,0.312,0.173,0.103,west-southwest,5.5,No
2017/12/12,20:00,0.340,0.213,0.350,0.331,0.313,0.173,0.103,west-southwest,6.2,No
2017/12/12,20:10,0.338,0.213,0.351,0.330,0.312,0.172,0.102,west-southwest,5.9,No
2017/12/12,20:20,0.338,0.213,0.348,0.330,0.312,0.173,0.103,west-southwest,6.4,No
2017/12/12,20:30,0.340,0.212,0.349,0.330,0.311,0.172,0.103,west-southwest,6.6,No
2017/12/12,20:40,0.339,0.212,0.350,0.330,0.315,0.174,0.103,west-southwest,7.9,No
2017/12/12,20:50,0.339,0.212,0.350,0.329,0.313,0.173,0.103,west-southwest,6.0,No
2017/12/12,21:00,0.337,0.212,0.349,0.329,0.311,0.174,0.102,west,5.9,No
2017/12/12,21:10,0.338,0.212,0.349,0.332,0.312,0.173,0.102,west-southwest,6.0,No
2017/12/12,21:20,0.338,0.213,0.350,0.329,0.312,0.172,0.102,west-southwest,8.1,No
2017/12/12,21:30,0.338,0.212,0.350,0.330,0.313,0.173,0.103,west,7.9,No
2017/12/12,21:40,0.338,0.211,0.350,0.330,0.311,0.173,0.103,west-southwest,7.3,No
2017/12/12,21:50,0.339,0.212,0.350,0.330,0.311,0.173,0.102,west-southwest,7.4,No
2017/12/12,22:00,0.337,0.212,0.352,0.329,0.312,0.172,0.103,west-southwest,9.2,No
2017/12/12,22:10,0.338,0.212,0.350,0.330,0.313,0.172,0.103,west-southwest,7.0,No
2017/12/12,22:20,0.340,0.211,0.349,0.330,0.313,0.174,0.102,west-southwest,6.4,No
2017/12/12,22:30,0.339,0.213,0.350,0.330,0.313,0.172,0.103,west,5.9,No
2017/12/12,22:40,0.338,0.211,0.350,0.330,0.312,0.173,0.103,west,4.8,No
2017/12/12,22:50,0.338,0.212,0.349,0.331,0.312,0.173,0.102,west-southwest,4.0,No
2017/12/12,23:00,0.337,0.212,0.351,0.330,0.312,0.173,0.103,southwest,5.2,No
2017/12/12,23:10,0.338,0.212,0.349,0.330,0.311,0.172,0.101,west-southwest,5.7,No
2017/12/12,23:20,0.337,0.212,0.348,0.330,0.312,0.172,0.102,west-southwest,6.0,No
2017/12/12,23:30,0.337,0.213,0.349,0.329,0.311,0.172,0.102,west-southwest,7.0,No
2017/12/12,23:40,0.339,0.212,0.348,0.328,0.312,0.174,0.103,west-southwest,5.0,No
2017/12/12,23:50,0.337,0.212,0.351,0.330,0.312,0.173,0.103,west-southwest,6.8,No
